WD4HMR Weather Reports


time (UTC)temp
C
wind
direction
speed
KPH
gust
KPH
rain 1hr
cm
rain 24hr
cm
rain mn
cm
humidity
%
barometer
mb
20260504180004 23 271 4.8 12.9 0.00 0.00 0.00 44 1017.1
20260504175504 23 101 3.2 12.9 0.00 0.00 0.00 47 1017.2
20260504175003 22 266 6.4 12.9 0.00 0.00 0.00 48 1017.2
20260504174503 23 270 4.8 9.7 0.00 0.00 0.00 47 1017.2
20260504174003 23 284 4.8 8.0 0.00 0.00 0.00 46 1017.3
20260504173504 23 273 3.2 11.3 0.00 0.00 0.00 46 1017.3
20260504172504 22 250 3.2 11.3 0.00 0.00 0.00 48 1017.4
20260504172004 22 273 6.4 11.3 0.00 0.00 0.00 49 1017.5
20260504171504 22 113 4.8 11.3 0.00 0.00 0.00 48 1017.6
20260504171004 22 258 3.2 9.7 0.00 0.00 0.00 48 1017.7
20260504170504 22 249 3.2 11.3 0.00 0.00 0.00 49 1017.7
20260504151003 20 259 4.8 9.7 0.00 0.00 0.00 54 1018.3
20260504150504 20 267 4.8 8.0 0.00 0.00 0.00 53 1018.3
20260504141004 18 310 3.2 8.0 0.00 0.00 0.00 55 1018.5
20260504140504 18 275 4.8 8.0 0.00 0.00 0.00 55 1018.5
20260504130504 17 264 4.8 11.3 0.00 0.00 0.00 56 1018.6
20260504110504 11 100 1.6 4.8 0.00 0.00 0.00 76 1017.8
20260504082004 10 57 1.6 3.2 0.00 0.00 0.00 80 1017.6
20260504081504 10 6 0.0 3.2 0.00 0.00 0.00 80 1017.7
20260504081004 10 298 1.6 3.2 0.00 0.00 0.00 80 1017.8
20260504080503 10 295 0.0 3.2 0.00 0.00 0.00 80 1017.8
20260504050504 11 293 1.6 3.2 0.00 0.00 0.00 75 1018.9
20260504050004 11 89 1.6 3.2 0.00 0.00 0.00 77 1018.9
20260504045504 11 127 1.6 4.8 0.00 0.00 0.00 76 1018.9
20260504045015 11 112 1.6 4.8 0.00 0.00 0.00 75 1018.9
20260504045003 11 113 1.6 4.8 0.00 0.00 0.00 75 1018.9
20260504044509 11 288 1.6 4.8 0.00 0.00 0.00 74 1018.9
20260504044504 11 291 1.6 3.2 0.00 0.00 0.00 74 1018.9
20260504044003 11 263 1.6 3.2 0.00 0.00 0.00 75 1018.8
20260504043504 11 314 1.6 3.2 0.00 0.00 0.00 74 1018.9
20260504043004 11 307 0.0 3.2 0.00 0.00 0.00 75 1018.9
20260504042504 12 50 0.0 3.2 0.00 0.00 0.00 75 1019.1
20260504042004 12 291 1.6 3.2 0.00 0.00 0.00 75 1019.1
20260504041505 12 330 0.0 3.2 0.00 0.00 0.00 74 1019.0
20260504041503 12 320 0.0 3.2 0.00 0.00 0.00 74 1019.0
20260504041004 12 54 3.2 3.2 0.00 0.00 0.00 74 1019.0
20260504040503 12 278 1.6 3.2 0.00 0.00 0.00 74 1019.1
20260504040004 12 89 0.0 4.8 0.00 0.00 0.00 73 1019.1
20260504035504 12 333 1.6 4.8 0.00 0.00 0.00 72 1019.2
20260504035004 12 280 1.6 4.8 0.00 0.00 0.00 74 1019.2
20260504034504 12 58 0.0 3.2 0.00 0.00 0.00 74 1019.3
20260504034004 12 342 1.6 4.8 0.00 0.00 0.00 72 1019.4
20260504033504 12 311 1.6 4.8 0.00 0.00 0.00 72 1019.5
20260504033004 12 84 1.6 3.2 0.00 0.00 0.00 73 1019.4
20260504032504 12 13 1.6 3.2 0.00 0.00 0.00 72 1019.4
20260504032004 12 22 1.6 3.2 0.00 0.00 0.00 75 1019.4
20260504031505 12 328 1.6 3.2 0.00 0.00 0.00 74 1019.5
20260504031503 12 307 1.6 3.2 0.00 0.00 0.00 74 1019.5
20260504031004 12 349 1.6 3.2 0.00 0.00 0.00 73 1019.5
20260504030504 12 63 0.0 3.2 0.00 0.00 0.00 72 1019.4
20260504030004 12 4 1.6 3.2 0.00 0.00 0.00 72 1019.4
20260504025504 12 38 0.0 3.2 0.00 0.00 0.00 73 1019.4
20260504025003 12 21 1.6 3.2 0.00 0.00 0.00 71 1019.3
20260504024504 13 334 1.6 3.2 0.00 0.00 0.00 73 1019.2
20260504024004 13 6 1.6 3.2 0.00 0.00 0.00 72 1019.2
20260504023503 13 38 1.6 3.2 0.00 0.00 0.00 70 1019.2
20260504023004 13 351 1.6 3.2 0.00 0.00 0.00 68 1019.1
20260504022510 13 1 1.6 3.2 0.00 0.00 0.00 68 1019.1
20260504022504 13 4 1.6 3.2 0.00 0.00 0.00 68 1019.1
20260504022004 13 319 1.6 3.2 0.00 0.00 0.00 70 1019.0
20260504021504 13 22 1.6 3.2 0.00 0.00 0.00 70 1019.0
20260504021004 13 311 0.0 3.2 0.00 0.00 0.00 69 1019.0
20260504020503 13 21 1.6 3.2 0.00 0.00 0.00 68 1019.0
20260504015504 14 317 0.0 3.2 0.00 0.00 0.00 70 1018.9
20260504015004 14 288 1.6 3.2 0.00 0.00 0.00 69 1018.9
20260504014504 14 272 1.6 4.8 0.00 0.00 0.00 68 1018.8
20260504014003 14 63 1.6 4.8 0.00 0.00 0.00 68 1018.8
20260504013504 15 43 0.0 3.2 0.00 0.00 0.00 67 1018.8
20260504013015 15 250 1.6 3.2 0.00 0.00 0.00 66 1018.8
20260504013004 15 255 1.6 3.2 0.00 0.00 0.00 66 1018.8
20260504012504 15 300 0.0 3.2 0.00 0.00 0.00 65 1018.8
20260504012007 15 286 0.0 3.2 0.00 0.00 0.00 64 1018.7
20260504011503 15 308 0.0 3.2 0.00 0.00 0.00 62 1018.8
20260504011004 15 63 1.6 3.2 0.00 0.00 0.00 62 1018.8
20260504010504 16 299 0.0 3.2 0.00 0.00 0.00 60 1018.8
20260504010004 16 289 0.0 3.2 0.00 0.00 0.00 59 1018.7
20260504005504 16 243 1.6 3.2 0.00 0.00 0.00 59 1018.6
20260504005004 17 322 0.0 3.2 0.00 0.00 0.00 57 1018.6
20260504004503 17 292 0.0 1.6 0.00 0.00 0.00 56 1018.6
20260504004004 17 308 0.0 1.6 0.00 0.00 0.00 54 1018.5
20260504003504 18 310 0.0 3.2 0.00 0.00 0.00 53 1018.5
20260504003004 18 283 0.0 3.2 0.00 0.00 0.00 52 1018.4
20260504002504 18 20 0.0 3.2 0.00 0.00 0.00 49 1018.4
20260504002004 18 285 0.0 3.2 0.00 0.00 0.00 46 1018.4
20260504001515 19 269 1.6 3.2 0.00 0.00 0.00 46 1018.4
20260504001504 19 273 1.6 3.2 0.00 0.00 0.00 46 1018.4
20260504001003 19 287 0.0 4.8 0.00 0.00 0.00 45 1018.4
20260504000503 20 272 1.6 4.8 0.00 0.00 0.00 44 1018.3
20260504000004 20 275 3.2 4.8 0.00 0.00 0.00 43 1018.3
20260503235504 20 274 1.6 4.8 0.00 0.00 0.00 41 1018.3
20260503235004 21 274 1.6 8.0 0.00 0.00 0.00 40 1018.3
20260503234003 21 278 3.2 11.3 0.00 0.00 0.00 40 1018.3
20260503233504 21 328 4.8 11.3 0.00 0.00 0.00 39 1018.3
20260503233004 21 274 3.2 8.0 0.00 0.00 0.00 39 1018.2
20260503232504 22 261 3.2 8.0 0.00 0.00 0.00 39 1018.2
20260503232004 22 339 3.2 8.0 0.00 0.00 0.00 38 1018.1
20260503231504 21 100 1.6 4.8 0.00 0.00 0.00 37 1018.1
20260503231004 21 252 1.6 8.0 0.00 0.00 0.00 38 1018.1
20260503230503 21 274 4.8 9.7 0.00 0.00 0.00 39 1018.2
20260503230004 21 279 1.6 9.7 0.00 0.00 0.00 38 1018.3
20260503225504 21 343 4.8 9.7 0.00 0.00 0.00 38 1018.3
20260503225003 21 300 4.8 11.3 0.00 0.00 0.00 39 1018.3
20260503224504 21 294 3.2 12.9 0.00 0.00 0.00 37 1018.3
20260503224003 21 291 3.2 12.9 0.00 0.00 0.00 38 1018.4
20260503223503 21 270 6.4 12.9 0.00 0.00 0.00 38 1018.4
20260503223004 21 280 3.2 14.5 0.00 0.00 0.00 38 1018.4
20260503222504 21 268 4.8 14.5 0.00 0.00 0.00 39 1018.5
20260503222004 21 348 3.2 12.9 0.00 0.00 0.00 39 1018.5
20260503221003 21 247 3.2 12.9 0.00 0.00 0.00 38 1018.5
20260503220503 21 280 4.8 9.7 0.00 0.00 0.00 38 1018.5
20260503220005 21 279 4.8 9.7 0.00 0.00 0.00 37 1018.5
20260503215505 21 107 3.2 12.9 0.00 0.00 0.00 39 1018.6
20260503215004 20 289 4.8 12.9 0.00 0.00 0.00 39 1018.6
20260503214504 20 258 6.4 12.9 0.00 0.00 0.00 40 1018.5
20260503214004 20 266 4.8 11.3 0.00 0.00 0.00 39 1018.6
20260503213504 21 264 4.8 14.5 0.00 0.00 0.00 38 1018.7
20260503213003 21 285 3.2 14.5 0.00 0.00 0.00 38 1018.7
20260503212504 21 92 3.2 11.3 0.00 0.00 0.00 40 1018.8
20260503212003 21 253 4.8 11.3 0.00 0.00 0.00 40 1018.8
20260503211015 20 252 3.2 12.9 0.00 0.00 0.00 40 1018.9
20260503211004 20 251 3.2 12.9 0.00 0.00 0.00 40 1018.9
20260503210503 20 271 4.8 12.9 0.00 0.00 0.00 40 1018.9
20260503210004 20 287 8.0 12.9 0.00 0.00 0.00 40 1019.0
20260503205503 20 291 6.4 12.9 0.00 0.00 0.00 40 1019.0
20260503205004 20 267 4.8 12.9 0.00 0.00 0.00 41 1019.1
20260503204503 20 273 6.4 12.9 0.00 0.00 0.00 41 1019.2
20260503204004 20 286 4.8 12.9 0.00 0.00 0.00 41 1019.3
20260503203503 20 262 3.2 12.9 0.00 0.00 0.00 41 1019.3
20260503203004 20 291 6.4 12.9 0.00 0.00 0.00 40 1019.3
20260503202504 20 270 3.2 12.9 0.00 0.00 0.00 40 1019.4
20260503202003 19 260 6.4 12.9 0.00 0.00 0.00 40 1019.5
20260503201508 20 334 3.2 12.9 0.00 0.00 0.00 40 1019.5
20260503201504 20 277 3.2 12.9 0.00 0.00 0.00 40 1019.5
20260503201015 20 267 4.8 14.5 0.00 0.00 0.00 40 1019.6
20260503201004 20 262 4.8 14.5 0.00 0.00 0.00 40 1019.6
20260503200515 19 286 3.2 14.5 0.00 0.00 0.00 41 1019.6
20260503200503 19 284 3.2 14.5 0.00 0.00 0.00 41 1019.6
20260503200003 19 280 4.8 14.5 0.00 0.00 0.00 41 1019.7
20260503195503 19 37 4.8 12.9 0.00 0.00 0.00 41 1019.8
20260503195004 19 286 4.8 14.5 0.00 0.00 0.00 42 1020.0
20260503194504 18 287 8.0 14.5 0.00 0.00 0.00 43 1020.0
20260503194004 19 287 6.4 14.5 0.00 0.00 0.00 42 1020.0
20260503193504 18 250 4.8 12.9 0.00 0.00 0.00 44 1020.1
20260503193004 18 262 3.2 12.9 0.00 0.00 0.00 44 1020.2
20260503192504 18 289 4.8 12.9 0.00 0.00 0.00 44 1020.4
20260503192004 18 277 4.8 11.3 0.00 0.00 0.00 46 1020.4
20260503191503 18 20 4.8 11.3 0.00 0.00 0.00 46 1020.4
20260503191004 18 256 3.2 12.9 0.00 0.00 0.00 47 1020.6
20260503190503 18 247 4.8 12.9 0.00 0.00 0.00 45 1020.6
20260503190004 18 156 6.4 12.9 0.00 0.00 0.00 44 1020.6
20260503185503 18 348 4.8 12.9 0.00 0.00 0.00 44 1020.8
20260503185003 18 282 3.2 14.5 0.00 0.00 0.00 42 1020.8
20260503184504 18 301 4.8 14.5 0.00 0.00 0.00 45 1020.8
20260503184003 18 276 4.8 11.3 0.00 0.00 0.00 43 1020.9
20260503183504 18 289 4.8 11.3 0.00 0.00 0.00 43 1020.9
20260503183004 18 303 4.8 11.3 0.00 0.00 0.00 44 1021.0
20260503182505 17 19 4.8 11.3 0.00 0.00 0.00 48 1021.0
20260503182005 17 240 3.2 12.9 0.00 0.00 0.00 49 1021.1
20260503181015 17 17 4.8 12.9 0.00 0.00 0.00 48 1021.1
20260503181004 17 20 4.8 12.9 0.00 0.00 0.00 48 1021.1